Theta_e
348 347 348 349 348 348 350 351 350 350 350 349 350 351 351 350 348 347 348 348 348 348 349 349 349 348 347 348 348 349 349 349 346 342 341 341 340 340 340 341 343 343 343 344 344 343 342 341 340 338 338 338 338 338 338 337 338 339 339 339 339 339 340 341 342 342 341 341 341 341 341 340 340 341 342 343 343 344 345 344 345 343 344 343 343
349 349 350 350 350 350 350 351 350 350 351 350 350 350 351 350 349 348 349 348 348 348 348 348 348 349 348 348 348 349 348 349 347 341 341 343 342 343 341 341 341 342 343 344 344 344 343 341 340 340 340 339 339 339 339 338 338 338 338 339 340 341 342 342 342 342 341 341 341 340 340 341 342 342 343 344 344 344 344 344 344 344 344 343 343
350 351 351 351 350 350 350 350 351 351 351 351 350 351 350 350 349 349 350 349 348 348 348 348 348 349 349 349 348 349 348 350 347 340 340 343 342 344 344 343 343 343 345 346 346 346 345 344 343 343 343 343 343 343 342 341 341 341 341 342 343 343 343 342 341 341 341 342 341 341 341 342 343 344 344 344 344 344 344 344 344 344 343 343 343
351 351 351 350 350 349 349 349 351 352 352 350 351 351 350 352 350 348 349 348 348 348 347 347 348 348 349 350 348 349 349 349 347 340 339 342 342 343 345 345 345 345 346 346 346 347 347 346 346 346 346 345 346 346 345 344 344 344 345 345 345 345 345 343 342 342 342 343 343 343 343 344 344 345 345 345 344 344 344 344 343 344 343 343 342
350 349 349 349 349 349 350 350 351 352 351 351 352 351 351 352 351 349 348 347 347 348 347 348 348 348 350 350 349 349 349 349 347 343 339 339 340 342 343 344 345 345 345 345 346 347 347 347 347 347 346 346 346 346 346 345 345 345 346 345 345 346 346 345 344 344 345 345 345 344 344 345 344 345 345 344 344 344 344 344 344 343 343 343 342
349 349 349 349 349 351 350 351 352 352 351 351 351 351 351 351 351 349 348 347 347 347 348 348 348 348 349 349 349 349 349 348 347 346 344 340 338 340 342 342 343 343 343 344 344 345 346 347 347 347 346 346 346 346 346 346 346 345 345 345 345 345 345 345 345 345 345 345 345 345 345 345 345 345 345 345 345 344 345 344 344 344 343 342 341
350 349 350 350 351 352 352 352 353 353 352 351 351 351 350 349 350 349 348 347 347 347 347 348 348 348 347 348 348 349 349 349 348 347 346 343 338 338 340 340 340 341 341 341 342 342 344 345 345 346 346 345 345 346 346 346 346 347 346 345 345 345 345 345 346 347 346 346 345 345 345 345 345 345 345 345 345 345 345 344 344 343 343 342 341
350 349 349 351 351 352 353 353 353 353 352 351 351 350 349 348 350 349 348 348 347 347 347 348 348 346 347 347 348 349 349 349 348 347 347 346 341 339 340 340 340 339 339 340 340 340 341 342 343 343 344 344 345 346 347 347 347 347 346 346 347 346 346 346 346 347 347 346 346 345 345 345 345 345 345 346 345 345 345 344 344 343 343 341 340
350 349 350 352 351 352 354 354 354 354 353 353 352 351 349 348 349 349 349 348 348 347 347 348 348 346 347 347 347 348 348 348 349 348 347 347 346 344 344 345 344 341 340 341 341 340 340 340 340 341 342 342 343 345 345 347 348 347 348 347 347 347 347 347 346 347 346 346 346 345 345 345 346 345 345 345 344 344 344 344 343 342 342 340 340
350 351 351 352 352 353 355 355 354 354 353 353 353 352 350 348 348 348 347 348 347 347 347 347 347 347 347 347 348 348 348 348 348 348 346 346 348 347 347 348 348 345 344 345 345 343 341 337 336 338 339 340 341 342 343 344 345 346 347 347 346 346 347 347 347 346 346 346 346 345 346 346 345 345 345 345 344 344 344 344 344 342 342 340 340
352 352 353 352 352 353 355 355 355 355 354 354 353 352 351 350 348 347 347 347 347 347 346 347 347 347 347 347 348 348 349 349 349 348 347 347 348 348 348 348 348 348 347 347 347 346 345 342 339 337 335 335 336 338 339 340 341 343 345 346 346 347 346 346 347 347 346 346 346 345 346 346 345 345 345 345 344 345 344 344 343 342 342 340 339
352 352 352 352 352 353 353 354 355 356 354 354 354 353 352 349 347 347 348 348 347 346 346 346 346 347 347 347 348 349 349 349 349 349 348 347 348 348 348 348 348 349 349 348 349 348 348 347 346 345 339 336 337 338 337 337 337 338 340 342 344 345 345 345 346 347 346 346 346 345 345 345 345 345 345 345 344 344 343 342 343 342 341 339 338
354 353 352 353 352 353 354 353 354 355 354 355 355 353 352 351 349 349 350 349 347 345 346 345 346 346 347 347 348 349 349 348 349 349 349 348 348 348 348 348 348 348 348 348 349 348 348 348 348 348 346 345 345 345 342 339 338 338 337 338 339 340 341 341 342 345 346 346 345 345 345 344 344 344 345 345 343 342 342 342 341 341 340 338 338
354 354 353 352 353 353 353 354 354 354 354 355 354 353 352 352 350 349 351 350 347 345 345 346 346 346 346 346 347 348 348 348 350 350 350 349 349 348 348 348 348 346 347 347 347 347 347 347 347 347 348 347 346 346 345 344 343 342 340 338 338 337 337 337 337 340 342 343 345 345 345 345 344 344 344 344 343 341 341 341 341 340 339 339 337
352 353 353 353 352 352 353 355 355 354 353 352 352 352 353 353 350 349 350 349 346 344 345 345 345 346 346 349 350 350 349 349 351 351 350 350 349 349 348 348 348 346 346 347 346 346 347 347 347 346 347 346 344 344 345 346 346 345 343 342 341 341 339 338 336 336 337 339 342 343 342 342 341 341 341 340 339 337 336 336 336 335 334 333 331
351 351 353 353 352 352 353 355 355 354 353 353 353 352 352 353 351 350 349 348 346 344 344 344 345 346 348 352 351 351 355 351 348 350 350 350 349 349 349 349 348 347 346 346 345 345 346 346 347 347 347 346 344 343 344 345 345 345 345 344 345 345 343 341 338 336 335 336 338 338 338 338 336 336 336 335 333 331 330 329 330 330 328 326 324
352 352 353 353 353 352 352 354 356 354 353 353 354 353 352 352 351 350 348 347 347 345 345 346 346 345 347 351 350 353 361 354 345 348 349 349 351 349 349 349 348 347 346 346 346 345 345 345 346 346 346 345 344 342 341 341 342 343 344 344 345 346 344 342 340 336 334 333 332 332 332 332 330 331 330 330 329 326 324 324 324 325 326 325 323
353 354 354 352 352 353 353 355 355 353 352 352 354 354 353 353 352 349 347 349 349 346 345 345 346 346 346 348 349 353 358 351 347 351 346 345 349 349 348 348 348 348 346 345 345 345 345 345 345 345 345 344 345 345 342 339 339 340 341 342 344 344 342 338 336 335 333 331 330 328 326 325 325 325 325 324 324 323 323 321 321 321 321 322 322
350 353 354 353 353 354 355 357 357 354 352 352 354 354 353 353 351 349 349 352 353 348 344 344 344 346 346 345 344 345 347 345 348 354 352 348 346 345 346 346 346 347 345 343 343 344 344 344 344 343 344 344 345 345 344 342 341 340 340 341 342 344 343 338 333 330 329 328 327 326 324 323 322 321 321 320 320 320 320 320 319 319 319 319 319
346 349 352 354 355 356 356 357 357 356 353 353 355 355 354 353 352 351 352 354 354 352 346 342 342 343 345 344 343 343 344 344 345 350 356 358 353 347 343 342 343 344 344 343 342 344 344 342 343 342 343 343 345 346 345 344 344 343 342 341 342 343 344 340 333 329 327 326 325 324 324 324 323 322 321 320 319 319 318 318 318 318 318 318 318
345 349 352 355 356 356 357 357 358 357 354 354 356 355 355 354 354 353 354 354 356 355 347 343 343 345 345 342 341 343 344 344 344 345 352 357 359 354 346 341 342 342 342 342 342 343 343 341 342 342 342 343 345 346 345 345 345 344 344 343 343 343 344 342 338 336 335 333 331 329 327 326 325 325 324 324 323 322 321 320 319 319 318 318 317
346 351 354 355 357 357 357 358 358 357 356 356 356 355 354 355 355 355 355 354 355 355 349 346 347 347 346 341 341 345 346 343 344 345 346 346 351 352 346 343 344 342 342 342 341 343 343 342 342 342 343 343 344 344 345 344 344 344 342 343 343 342 342 343 341 340 340 340 339 337 335 332 331 329 329 328 328 327 326 325 324 323 322 321 319
346 353 355 355 357 357 357 357 357 357 357 357 356 355 354 354 356 356 355 352 352 353 351 348 349 347 345 344 343 345 346 344 344 345 345 344 349 351 346 343 343 341 342 341 340 342 342 342 342 341 342 341 342 343 343 343 343 341 340 341 343 342 342 342 341 341 341 343 343 343 342 340 338 336 335 334 333 333 332 331 329 328 327 326 325
346 352 355 355 356 357 357 358 358 356 357 357 356 356 355 355 356 356 355 354 353 352 351 349 349 347 346 346 345 344 346 345 345 346 344 344 347 349 345 343 343 342 340 339 340 340 340 341 340 340 340 340 341 341 342 342 341 340 340 341 341 341 341 341 340 341 343 344 344 344 344 343 343 342 341 341 341 340 339 339 337 337 334 333 331
345 349 352 353 355 356 356 357 357 356 356 357 357 357 356 355 356 355 354 355 354 352 350 348 349 350 349 347 344 344 346 345 346 346 346 344 344 345 344 344 344 343 340 340 340 340 340 341 339 339 339 339 340 340 341 341 340 340 340 341 340 340 340 340 341 342 342 344 343 344 344 344 344 344 344 345 345 345 346 345 345 344 343 341 339
345 346 348 351 353 355 356 356 355 355 355 357 357 357 356 355 356 355 354 353 353 353 350 347 349 352 352 349 347 347 346 348 349 348 348 347 343 342 343 345 344 343 343 343 342 343 342 342 342 342 342 341 340 339 340 341 340 339 338 339 340 340 340 341 342 343 343 344 345 345 345 346 346 345 346 347 348 349 350 350 349 349 348 347 346
347 345 346 349 352 354 355 356 356 355 355 356 356 356 356 356 356 355 354 354 354 355 352 348 349 352 353 352 352 351 350 352 352 348 344 344 342 340 343 346 344 342 346 348 344 342 344 344 344 345 344 343 341 340 340 342 341 340 340 341 341 341 343 343 343 344 345 346 346 346 347 347 347 347 348 350 351 353 354 354 354 353 352 351 350
349 347 346 348 351 353 355 356 357 356 356 355 355 355 356 357 357 355 355 355 355 355 354 351 351 353 354 355 354 354 353 353 353 350 344 343 343 341 343 345 340 343 356 362 353 344 346 347 343 345 346 342 341 341 340 341 341 340 341 341 342 343 343 345 345 345 346 347 347 348 348 348 348 349 351 354 355 355 355 355 355 355 354 354 353
348 347 347 347 350 351 354 356 356 357 358 357 354 355 355 357 357 355 356 356 356 356 355 354 354 354 356 357 357 357 354 353 353 352 349 347 347 346 347 343 338 346 364 373 363 348 344 345 343 345 346 343 344 344 343 345 345 345 345 345 346 348 348 349 348 349 349 349 351 351 352 353 353 354 355 356 356 356 356 356 355 356 355 354 354
346 347 347 348 348 350 352 354 355 356 359 358 355 354 354 357 357 356 356 357 358 357 356 355 355 356 357 357 357 357 357 354 352 352 350 350 350 349 350 346 341 345 351 359 363 351 341 344 345 344 343 342 345 346 345 347 348 349 351 352 354 354 355 354 353 353 354 354 354 353 355 356 356 356 357 356 356 356 357 357 356 356 356 356 355
346 346 347 348 348 349 350 353 354 355 357 358 357 355 353 355 357 358 357 357 357 358 358 357 356 356 356 357 357 357 357 355 353 353 353 355 354 352 353 353 349 348 346 348 355 350 343 346 347 346 346 347 349 347 346 346 347 349 352 354 356 356 355 355 354 353 352 352 353 353 354 356 356 357 358 357 357 358 358 358 358 357 357 357 355
347 346 346 347 349 350 351 352 354 355 355 356 358 357 355 354 354 357 358 357 357 357 358 359 357 356 356 357 358 356 356 357 355 356 357 357 357 355 355 356 354 354 353 351 351 350 349 350 350 350 352 354 353 351 350 349 349 351 353 355 356 355 355 354 353 352 351 352 354 355 356 357 358 358 359 359 359 360 360 359 357 355 353 352 350
344 346 347 348 348 350 351 352 354 354 354 355 356 357 356 355 354 354 355 355 355 355 357 359 359 357 356 355 357 356 356 357 357 357 358 357 357 357 356 357 356 356 356 354 352 352 354 355 355 355 356 357 355 352 352 353 352 354 355 355 355 356 356 357 357 356 355 357 357 358 358 359 359 360 360 360 360 361 360 357 352 349 347 347 347
342 343 345 346 348 350 351 352 354 354 355 354 355 356 357 356 355 353 352 351 350 351 354 358 359 358 357 355 355 357 356 357 358 358 358 357 357 357 357 358 358 357 357 356 355 354 355 357 357 356 357 358 356 353 354 355 356 357 357 356 357 357 357 358 359 359 358 360 359 360 359 360 360 360 360 361 362 360 356 349 346 346 348 349 350
343 343 343 344 347 348 350 351 353 355 355 354 355 356 357 357 356 354 353 352 349 350 352 354 357 358 357 355 354 355 356 357 357 356 357 357 356 357 356 357 359 358 358 357 357 356 357 357 358 358 358 357 355 354 356 358 359 358 358 357 357 357 358 359 359 360 360 360 360 359 360 359 359 360 362 362 360 353 347 345 348 350 351 350 348
346 345 345 345 347 348 349 350 352 354 355 355 354 356 357 358 357 355 355 354 352 351 350 350 353 354 356 354 354 356 357 356 355 356 356 356 357 357 356 356 358 359 358 358 358 358 358 358 358 357 357 356 356 357 358 359 360 358 356 356 357 358 359 359 360 361 360 360 360 359 358 359 359 360 359 357 352 346 346 349 352 351 347 344 341
348 348 349 350 350 351 351 350 351 353 355 355 355 356 356 358 358 356 356 355 353 352 350 348 351 354 355 353 353 357 359 357 356 355 356 357 357 358 357 356 357 357 356 358 358 358 357 358 357 357 356 357 357 358 359 360 360 357 354 355 358 360 359 360 361 360 358 359 360 359 359 359 357 353 350 348 347 347 349 351 348 344 341 340 339
351 350 351 352 353 354 353 352 351 352 353 355 355 355 356 357 359 358 357 355 353 352 350 349 351 355 356 353 352 355 358 358 358 357 358 357 357 358 358 357 357 356 356 358 358 358 357 357 357 357 357 358 359 360 359 360 360 358 356 357 360 361 361 362 361 357 355 358 359 359 359 355 350 347 347 348 348 349 348 345 342 340 339 337 336
353 353 353 353 354 355 355 354 353 352 353 355 356 356 356 357 359 359 359 357 355 353 350 349 350 353 354 354 352 352 354 356 356 357 357 358 358 358 358 358 358 357 358 358 359 359 358 357 358 358 359 359 359 361 361 360 360 358 358 361 363 363 362 360 358 355 355 358 359 356 353 349 346 348 348 348 347 344 341 340 340 339 337 334 333
353 354 354 354 354 355 356 356 354 353 352 354 355 356 356 357 358 359 359 359 357 355 351 349 350 351 352 352 351 351 351 351 352 352 354 355 356 358 359 358 358 358 357 358 360 360 359 359 359 359 359 360 361 361 361 361 360 358 360 363 363 362 360 355 355 357 358 359 358 352 346 346 348 347 346 343 339 338 338 340 339 338 335 333 333
354 354 354 354 354 354 355 356 356 354 354 354 355 355 356 357 357 357 358 358 357 356 354 351 350 350 350 349 349 349 350 349 349 351 353 354 356 357 358 358 358 358 358 359 359 359 360 359 360 360 360 360 361 361 361 361 360 359 362 364 363 360 355 352 354 359 360 360 356 348 345 348 347 344 341 337 335 337 339 340 338 335 334 334 335
355 355 355 355 355 354 354 355 355 355 355 355 354 354 354 355 357 356 357 357 357 356 356 354 352 350 349 350 349 349 350 352 351 352 355 356 357 356 356 357 358 358 358 359 360 359 360 360 359 360 360 360 361 360 361 360 358 361 363 363 361 357 353 354 357 360 360 358 352 346 345 347 344 340 336 333 335 339 339 337 335 334 334 335 336
356 356 355 355 356 355 354 354 356 356 356 356 355 354 354 354 355 356 356 357 357 356 356 355 354 351 350 351 352 352 353 354 354 354 355 355 356 354 354 355 356 357 357 358 359 359 359 360 359 360 360 361 360 359 358 357 358 362 364 362 359 354 354 358 360 361 361 355 349 347 347 344 342 339 333 332 337 340 338 335 334 334 335 335 336
357 357 357 356 356 355 354 355 355 356 356 356 355 355 354 354 355 356 356 356 357 357 357 356 355 354 352 352 352 353 354 353 353 354 354 355 356 356 355 356 356 356 356 356 356 357 357 358 359 359 359 359 358 357 356 354 355 359 360 359 356 352 353 358 361 362 360 353 348 348 347 343 341 337 330 333 339 340 336 333 334 335 335 334 335
357 358 357 357 356 356 355 354 354 356 356 356 356 356 355 355 355 356 356 356 356 356 356 356 356 356 355 354 354 354 353 353 354 354 354 355 356 357 357 358 356 356 356 355 355 355 356 357 358 358 357 357 356 355 354 353 353 353 354 354 352 350 352 358 362 361 357 349 347 348 346 343 340 333 329 334 339 337 333 333 334 334 333 334 334
358 358 358 357 356 356 355 355 355 355 355 356 355 356 356 355 355 356 356 356 356 355 356 356 356 356 355 356 355 354 354 354 355 355 353 354 355 356 357 357 356 354 355 354 355 355 356 357 357 357 356 355 355 355 355 355 355 352 353 352 351 352 356 359 362 359 352 348 348 347 344 341 336 330 329 335 338 335 332 333 333 333 334 332 328
357 358 358 357 357 355 356 355 355 355 355 354 355 356 355 356 356 356 357 356 355 356 356 355 356 356 356 356 356 355 354 353 354 354 354 355 356 356 356 355 354 352 351 351 352 354 355 355 356 356 354 355 357 358 359 360 359 357 355 353 352 356 360 361 362 356 348 348 348 344 341 339 334 329 330 335 337 334 331 333 333 333 331 326 320
358 359 358 357 357 356 355 355 356 355 355 354 354 354 355 355 356 357 356 356 355 355 355 356 355 356 356 356 356 355 354 354 352 352 353 356 356 357 356 354 353 352 350 349 350 351 352 352 352 354 355 356 360 360 361 362 363 361 358 355 355 358 359 360 359 352 347 348 347 342 338 337 333 330 331 335 337 333 331 333 333 329 323 317 316
358 358 358 359 358 356 355 356 355 356 356 355 355 354 354 355 356 357 357 356 356 356 356 355 355 355 356 356 356 356 355 354 352 352 353 355 356 356 355 354 353 352 350 350 350 351 351 352 354 355 357 359 359 358 358 360 362 363 359 357 357 359 359 359 356 349 346 348 346 340 337 336 334 332 330 334 335 332 331 333 331 323 316 315 316
358 358 359 359 358 357 356 355 355 356 356 356 356 355 355 355 355 356 357 356 357 357 356 356 355 355 355 355 355 356 356 355 354 353 353 354 355 355 354 354 354 353 351 349 350 351 352 355 358 359 359 359 358 356 357 360 362 362 360 359 359 359 359 358 354 347 345 345 343 339 336 336 336 333 331 333 335 332 331 333 329 321 317 318 317
358 359 359 360 359 358 357 356 355 356 356 357 356 357 356 356 355 356 356 356 357 357 357 357 356 356 356 355 355 355 354 355 355 354 354 353 354 354 354 354 355 353 351 349 350 352 354 357 360 360 360 360 357 357 358 361 363 363 361 361 360 359 359 358 353 349 345 342 341 339 336 335 335 333 330 333 335 334 332 332 328 321 319 319 317
Wind_Speed
14 13 11 10 10 10 8 8 8 8 7 6 6 5 6 6 8 9 9 9 10 10 9 7 8 8 9 10 9 8 7 6 4 7 8 8 9 8 8 8 7 7 7 6 5 5 4 5 5 5 5 5 5 5 5 5 5 5 5 5 5 5 5 4 4 3 3 3 3 3 3 3 3 3 3 4 5 5 6 7 7 8 8 7 8
13 12 10 9 9 9 8 7 7 7 6 6 6 6 6 6 8 10 9 9 10 10 9 9 9 7 6 9 10 9 8 6 3 6 8 8 8 8 8 8 8 7 7 6 6 5 5 5 5 5 5 5 5 5 5 5 5 5 5 5 5 5 4 4 4 4 4 4 4 4 4 3 3 4 4 5 6 6 6 7 7 7 7 8 8
12 11 11 10 10 9 8 8 8 8 7 7 6 6 6 6 8 10 9 9 11 10 10 10 9 6 6 8 11 11 8 6 4 5 8 8 9 9 9 8 8 8 8 7 7 7 6 6 6 6 6 6 5 5 5 5 5 5 5 5 5 4 4 5 5 5 4 4 5 5 4 4 4 5 5 6 7 7 7 7 7 7 7 8 8
11 11 12 11 10 10 9 9 9 8 7 6 6 6 6 5 7 8 9 11 11 10 10 9 7 7 6 7 11 11 9 8 5 5 7 8 9 9 9 10 9 9 8 8 8 8 7 7 7 7 7 6 6 6 6 6 6 6 6 6 5 5 6 6 5 6 5 5 6 6 5 6 6 6 6 7 8 8 8 7 8 8 8 8 8
11 11 12 12 11 11 10 10 9 7 6 5 5 5 5 5 6 8 10 11 11 11 10 8 7 8 7 7 12 11 10 9 6 5 6 6 8 9 10 10 10 10 10 10 10 9 8 8 8 8 8 8 8 8 7 8 7 7 7 7 6 7 7 7 7 7 6 7 7 7 7 7 7 7 8 8 8 8 9 8 8 8 8 8 8
12 12 13 13 12 11 10 9 8 7 5 4 4 4 4 5 6 8 10 11 11 11 9 8 8 8 7 8 11 12 11 11 8 5 5 5 7 8 9 10 10 10 10 11 11 10 10 9 9 9 9 9 9 9 9 9 8 8 8 8 9 9 9 9 8 8 8 8 8 8 8 8 8 8 8 9 9 9 9 9 9 8 9 8 7
12 12 13 13 12 10 9 9 8 7 6 4 3 4 5 5 7 9 11 11 11 11 10 9 8 8 8 8 11 13 11 11 11 8 6 6 6 7 8 9 9 9 9 10 10 11 11 10 10 11 11 11 11 10 10 9 9 9 9 9 10 10 10 10 9 9 9 9 9 9 9 9 9 9 9 9 9 9 9 9 9 9 9 8 7
13 13 13 12 11 10 10 9 8 7 6 5 3 4 6 7 8 10 12 12 12 11 11 10 10 8 7 7 11 13 10 10 12 11 9 7 6 6 7 8 8 8 9 9 9 10 10 11 11 11 11 11 11 11 10 10 10 11 11 10 11 11 11 10 10 10 10 10 10 10 9 9 9 9 9 9 9 9 10 10 10 10 9 8 8
13 12 12 11 11 10 9 8 7 7 7 5 4 5 7 8 9 11 12 12 12 12 12 11 11 9 7 7 10 11 10 11 12 12 12 10 8 7 7 7 7 8 9 8 8 9 9 10 11 11 11 11 11 11 11 11 12 12 12 11 11 11 11 11 11 11 11 10 10 10 10 9 9 9 10 10 10 9 10 10 10 10 9 8 8
13 12 11 11 10 9 9 8 7 7 7 6 5 7 8 8 9 10 10 10 11 11 12 11 10 10 8 8 8 9 10 10 10 11 13 13 10 8 7 8 8 8 8 8 8 8 8 9 10 11 11 12 12 12 13 13 13 12 12 12 12 12 12 12 12 12 12 11 11 10 10 10 9 10 11 10 10 9 10 10 10 10 9 9 9
14 12 11 11 10 10 9 8 7 6 6 5 6 8 9 9 10 9 9 8 8 9 10 10 9 10 10 10 9 8 8 9 9 11 14 14 11 8 8 8 9 9 8 8 8 8 8 8 9 10 10 10 11 12 12 12 12 12 12 13 13 12 12 12 12 12 12 12 12 11 11 11 11 11 11 11 11 11 11 10 10 10 10 9 9
14 12 11 11 11 11 10 9 8 7 6 5 5 7 9 11 11 10 8 6 5 6 9 10 9 9 11 11 9 8 9 9 9 11 13 15 13 10 9 9 9 9 9 9 9 8 8 8 8 9 8 8 9 9 10 11 11 11 12 12 13 13 13 13 13 12 12 12 12 13 13 13 12 11 11 11 12 12 11 11 11 11 10 10 9
14 12 12 11 11 11 10 9 9 8 7 6 6 7 9 11 10 8 6 3 3 5 10 12 10 8 8 10 10 11 10 8 8 11 14 15 14 13 11 10 9 9 9 9 9 9 8 8 8 9 9 9 8 8 8 9 10 10 11 11 12 12 13 12 12 13 13 13 13 13 14 14 13 13 13 13 13 13 12 12 12 12 11 10 10
15 13 12 12 11 12 10 9 9 9 8 8 8 8 9 10 9 7 4 2 3 7 14 14 10 9 8 5 5 9 10 9 8 11 13 15 16 16 14 12 10 9 9 9 9 10 9 9 9 9 9 9 9 8 8 8 8 9 9 10 10 11 12 12 12 13 13 13 13 14 14 14 15 14 14 14 14 14 13 13 13 13 12 11 10
15 13 12 12 11 11 10 10 10 10 9 8 9 9 9 9 9 7 4 3 4 8 13 12 8 10 8 3 2 4 5 8 10 11 13 15 17 18 17 16 13 10 10 11 10 10 10 10 11 11 10 9 9 8 8 8 8 8 8 9 9 10 11 11 12 13 13 13 13 14 14 14 14 14 14 14 14 14 13 13 13 13 13 12 11
14 14 13 11 10 10 10 10 10 10 8 7 8 9 9 9 9 8 6 5 4 6 9 8 6 8 6 1 1 2 1 5 10 12 14 15 17 19 19 19 16 13 13 13 12 11 11 11 13 13 12 10 9 9 9 9 9 9 10 10 10 11 11 12 12 13 13 14 14 14 14 14 14 14 14 14 14 14 14 13 13 13 13 13 12
14 14 13 11 10 9 9 9 9 10 9 7 7 8 9 9 9 9 7 5 4 5 8 6 6 9 8 3 2 1 2 3 5 9 14 17 18 19 21 21 20 17 16 15 14 14 13 13 14 15 14 12 10 10 10 10 10 10 11 11 11 12 12 12 13 13 13 14 14 14 15 15 15 15 15 15 16 15 15 15 15 14 14 14 13
15 15 13 12 11 10 8 8 9 10 9 7 7 8 9 10 10 10 7 5 4 5 8 7 6 10 11 6 3 2 3 3 3 3 10 17 20 20 21 22 22 21 19 16 16 16 16 16 16 15 15 14 12 10 9 9 9 10 11 11 11 12 12 12 12 12 13 14 14 15 15 15 15 16 16 16 16 17 16 16 16 15 15 15 15
16 16 14 13 12 11 9 9 9 9 9 8 8 8 9 9 10 10 7 6 6 6 9 9 8 9 8 7 6 3 3 4 3 2 3 9 16 19 20 21 22 23 22 18 16 17 17 17 17 16 16 15 13 11 9 8 8 9 10 10 10 11 12 11 11 12 13 13 14 14 15 15 16 16 17 17 17 18 18 18 18 17 17 17 17
16 16 16 14 13 11 10 10 9 9 10 9 9 9 9 9 10 9 8 8 6 6 10 10 8 8 7 8 7 4 4 6 5 4 3 2 6 10 13 16 20 23 22 18 17 17 17 17 17 16 16 16 15 12 10 9 9 9 9 9 9 10 11 11 11 11 12 13 14 15 15 16 17 17 17 18 18 19 19 19 19 19 19 19 19
17 16 16 15 14 12 11 11 10 9 11 10 9 10 10 10 10 10 10 10 7 6 9 9 7 7 7 7 7 5 4 5 6 4 3 1 2 3 6 11 16 21 22 19 18 18 18 18 17 16 16 16 16 14 12 10 10 10 9 9 10 11 11 11 11 12 13 13 14 15 16 17 17 18 18 19 19 20 20 21 21 21 21 21 21
19 17 16 16 15 14 13 13 12 11 11 11 11 12 12 11 10 10 10 10 9 8 8 7 5 6 8 8 8 7 4 4 7 5 2 1 1 3 4 7 12 17 20 20 19 19 19 19 19 18 17 16 15 15 13 12 11 11 10 10 11 12 12 12 13 14 14 15 15 16 17 18 18 19 20 20 21 21 21 22 22 23 23 23 23
21 20 18 18 18 17 16 15 14 13 13 12 13 12 12 12 10 10 10 10 11 9 8 8 6 6 8 9 9 8 6 5 6 6 4 3 2 3 6 7 10 14 14 16 17 17 18 19 19 18 16 14 14 15 15 13 12 11 11 11 12 13 13 14 14 15 16 17 18 18 19 19 20 20 21 22 23 23 23 24 24 24 25 25 25
24 23 22 20 20 20 18 17 16 16 15 14 14 13 13 14 12 11 11 10 11 11 10 9 8 8 8 10 11 10 9 8 7 6 7 7 5 4 3 3 6 10 10 10 12 12 13 14 14 14 14 13 13 14 14 13 13 12 12 13 13 14 14 15 16 17 18 19 20 21 21 22 22 23 23 24 24 25 26 26 26 27 27 27 28
27 27 25 23 22 22 21 19 18 19 18 16 15 14 15 16 14 12 12 11 11 12 12 12 11 9 8 8 10 11 11 9 8 10 11 10 7 4 1 1 1 4 6 7 7 9 10 10 11 12 13 15 15 15 14 13 13 12 13 15 15 15 16 17 17 18 19 20 21 21 22 23 23 24 24 25 26 27 27 28 29 29 29 30 30
29 28 27 26 25 24 23 21 20 20 20 18 16 15 16 18 16 13 12 12 12 12 13 14 13 10 8 7 7 8 9 8 9 12 14 13 10 5 2 0 1 0 2 4 6 7 8 10 11 13 15 17 17 17 16 14 13 13 13 15 16 17 18 18 19 20 20 21 21 22 23 23 24 25 25 26 27 27 28 29 29 30 30 31 31
29 28 28 27 27 26 24 23 21 20 20 19 17 16 15 17 18 16 12 11 12 13 13 15 15 12 10 9 8 8 8 7 7 8 12 14 13 9 4 2 1 2 2 2 5 7 7 7 6 8 12 15 17 17 16 14 14 14 15 17 18 19 20 20 21 21 22 22 23 24 24 25 25 26 26 27 27 27 27 28 28 29 30 30 31
30 29 28 28 28 27 26 25 23 21 21 20 19 18 16 16 19 19 14 12 13 13 14 15 15 13 11 10 10 10 9 7 5 3 4 8 9 8 6 4 3 2 3 3 4 4 4 3 3 5 5 7 12 14 14 14 14 16 17 19 21 22 22 23 24 24 25 26 26 26 26 26 26 26 25 25 25 25 26 26 27 28 28 28 28
30 30 29 28 28 28 27 26 25 24 23 22 21 21 18 16 19 21 17 14 13 13 13 15 16 14 13 12 11 10 9 8 6 3 2 3 5 6 5 4 4 3 1 2 4 3 2 3 2 3 6 6 5 7 9 12 13 16 18 20 21 22 22 23 24 24 24 24 25 25 24 24 24 24 23 24 24 25 26 27 26 26 26 27 27
30 30 29 29 28 28 28 27 26 26 25 24 24 23 22 19 19 21 19 16 16 15 13 15 16 16 15 13 12 11 10 9 8 6 5 5 5 5 4 4 4 4 4 3 3 4 3 3 2 2 6 8 6 6 8 10 12 14 16 18 18 18 19 19 20 21 22 22 22 22 21 22 22 22 23 24 26 27 27 27 27 27 28 28 29
32 31 30 30 29 28 28 28 27 27 27 26 26 25 25 24 22 22 21 19 18 18 16 16 17 17 17 16 14 13 11 10 8 7 6 6 6 6 5 4 4 4 5 4 2 3 4 4 6 8 10 10 10 11 11 12 13 14 15 16 17 17 18 19 19 20 20 19 19 20 20 21 21 23 24 25 25 26 27 27 28 28 27 27 27
34 33 32 31 30 29 29 29 29 29 28 28 28 27 27 27 26 25 25 23 21 20 19 18 17 17 18 18 17 14 11 10 9 8 7 6 6 7 7 7 5 5 6 6 6 7 10 10 11 11 11 12 14 14 14 14 14 15 16 17 17 17 17 17 17 15 15 15 16 17 19 20 22 23 25 25 25 26 26 26 26 25 24 24 23
37 35 34 34 33 32 31 31 31 31 30 30 30 30 29 29 28 27 27 26 25 23 22 20 18 18 18 19 19 16 12 11 11 10 9 8 7 7 8 9 9 8 8 9 10 11 14 14 13 13 14 15 15 15 15 16 16 16 16 15 15 15 15 14 13 12 12 14 16 18 20 21 23 24 24 24 23 23 24 24 24 22 22 23 23
39 38 37 36 35 34 33 33 34 33 32 32 32 31 30 30 29 28 27 27 26 25 24 22 20 19 19 20 20 19 16 14 14 13 12 12 11 11 10 11 12 12 11 12 11 11 14 17 17 17 16 15 15 15 15 17 17 17 16 14 13 13 13 12 13 13 14 15 17 19 21 22 23 23 22 20 20 22 23 22 21 22 23 24 24
39 39 39 38 38 37 36 35 35 35 34 33 33 32 32 31 30 29 27 26 26 25 25 25 24 22 20 20 20 20 18 18 18 17 17 16 15 15 14 13 14 14 14 14 14 13 15 18 18 18 17 15 15 16 17 17 17 17 16 16 15 14 12 13 14 15 16 17 19 21 21 21 20 19 18 19 20 20 20 21 21 22 23 24 24
38 39 39 39 38 38 37 36 35 36 36 35 34 33 33 32 32 31 29 28 27 26 25 26 25 24 23 22 21 20 18 19 20 19 19 18 17 17 16 15 15 14 14 15 16 16 17 18 19 19 17 15 16 18 19 18 17 17 18 19 18 16 14 13 14 15 17 18 19 20 19 18 18 18 18 19 18 17 19 20 21 22 22 22 22
38 38 38 38 38 38 37 37 36 36 36 36 35 34 34 33 33 32 32 30 29 27 26 25 25 24 23 23 22 21 19 20 20 21 20 19 19 18 17 17 16 16 15 14 15 16 18 19 20 20 17 16 17 19 19 17 17 19 20 19 18 17 15 12 11 14 18 19 19 19 17 17 18 18 17 15 15 16 18 19 19 20 21 21 21
37 37 38 38 38 38 38 38 37 37 37 37 37 36 35 34 34 33 33 32 31 30 28 27 25 25 24 23 23 23 23 22 22 22 21 20 20 19 18 17 16 16 16 16 15 15 17 18 20 20 19 18 19 19 18 16 17 21 22 19 16 14 11 8 10 16 20 19 18 17 18 19 18 15 13 13 14 16 16 17 18 19 20 22 23
38 37 37 38 38 38 39 39 39 39 38 37 37 36 35 34 34 34 33 33 32 31 30 29 27 26 25 24 24 23 24 25 24 24 23 22 21 20 20 19 18 17 17 17 17 17 18 18 20 21 21 20 19 18 17 16 17 20 20 17 12 8 7 9 14 18 20 18 17 18 18 17 14 12 12 13 14 15 16 17 18 19 22 24 24
38 38 38 38 38 38 38 39 40 40 39 38 38 37 36 35 34 34 34 33 33 32 32 31 30 29 28 27 26 25 24 24 25 25 24 23 22 22 21 20 19 19 19 19 19 19 19 20 21 22 21 20 19 17 16 16 17 18 15 10 7 7 11 16 17 17 17 17 18 18 16 14 12 11 12 13 15 16 17 17 19 21 24 25 25
39 39 38 38 38 38 38 38 39 40 39 39 39 38 37 36 34 34 34 34 33 33 32 32 31 31 30 29 28 27 26 24 24 24 23 23 22 23 23 22 21 21 21 21 21 21 20 20 21 22 20 20 20 17 15 15 15 16 10 5 6 11 16 20 19 15 14 16 18 16 14 13 12 12 13 15 17 16 16 18 20 23 23 23 24
39 38 38 37 37 38 38 38 38 39 39 39 40 40 39 38 36 35 34 35 34 33 32 32 32 32 31 30 29 28 27 26 25 24 24 24 24 24 24 23 23 23 23 23 23 23 21 20 21 20 18 20 21 17 15 14 13 12 8 6 9 14 16 18 18 15 14 17 18 15 13 11 11 13 16 17 16 15 17 20 22 22 21 21 22
39 38 37 37 37 37 38 38 38 38 39 40 41 41 41 39 38 36 35 35 34 34 33 32 32 32 32 31 31 30 29 28 27 26 25 25 25 25 25 25 25 25 25 25 25 24 22 21 21 19 17 20 22 18 16 16 12 10 9 8 12 15 14 13 13 14 16 18 16 14 11 9 11 15 17 17 15 15 18 20 20 19 19 19 20
38 38 37 37 37 37 37 37 38 38 39 41 42 42 42 41 39 38 36 35 34 34 34 33 33 33 32 32 32 31 31 30 29 27 26 25 25 25 26 26 27 27 27 27 27 26 25 23 22 20 19 20 22 21 20 18 14 11 12 13 14 15 14 12 11 13 16 15 12 12 10 7 11 16 16 14 14 15 17 18 18 18 19 19 20
37 37 38 38 37 37 37 37 37 38 40 42 43 42 42 41 41 39 37 36 35 34 34 34 34 33 33 32 32 32 31 30 29 28 27 26 26 26 27 28 29 30 30 30 29 29 28 26 24 24 22 22 23 24 23 21 17 14 14 16 17 16 15 13 13 14 14 10 8 10 7 6 12 16 14 13 13 14 17 17 17 18 19 19 22
36 37 38 38 38 38 37 37 38 38 40 42 43 43 43 42 41 41 39 37 35 35 35 34 34 34 34 33 33 33 32 31 30 29 28 28 27 28 29 29 29 30 30 31 32 31 31 30 28 28 26 25 26 25 23 22 21 18 17 17 17 16 14 13 13 14 11 6 7 8 4 6 12 15 13 12 11 14 16 16 17 18 18 21 24
37 37 38 38 39 39 38 38 38 38 40 42 42 42 43 42 41 41 40 38 36 34 34 34 34 35 35 34 34 34 33 32 32 31 30 29 28 29 30 30 30 30 30 30 31 31 31 31 30 30 28 25 24 22 20 20 21 20 18 16 14 13 13 14 15 12 7 4 7 6 3 5 11 14 13 10 9 13 15 15 17 19 20 23 25
36 37 37 38 38 39 38 38 37 38 40 42 43 43 43 42 41 40 40 40 37 35 35 35 35 36 35 35 35 35 35 34 33 32 31 30 30 30 30 30 29 29 29 28 28 28 29 29 29 28 25 21 19 18 18 19 20 19 17 14 13 14 14 14 14 10 4 4 6 5 3 6 10 13 12 9 8 13 16 15 17 20 22 25 27
35 36 36 37 38 38 38 38 38 38 40 41 43 43 43 42 41 40 40 40 38 37 37 37 37 37 37 36 36 36 36 36 35 33 31 31 31 32 31 30 28 28 29 28 26 25 25 25 24 23 21 19 18 18 19 19 20 19 15 13 15 15 13 11 10 7 5 5 5 4 4 6 9 11 10 7 7 12 15 14 16 21 24 28 31
36 35 35 36 36 38 39 39 39 39 39 40 42 43 43 43 42 41 40 39 38 38 39 38 38 38 38 38 37 36 36 36 36 34 32 31 32 33 33 32 30 30 31 30 27 24 23 21 21 20 20 20 19 19 19 19 21 21 17 15 16 14 12 11 10 8 6 5 4 4 4 5 8 10 9 5 5 10 14 12 13 20 24 28 32
36 35 34 34 35 37 38 39 40 40 39 39 40 42 42 42 42 42 41 39 38 38 39 38 37 37 38 39 37 37 37 37 36 34 32 32 32 33 33 32 31 32 33 31 28 26 24 22 21 20 20 19 18 19 19 18 20 20 17 16 16 16 15 14 11 8 4 3 2 3 3 4 7 9 8 5 2 5 10 9 12 20 23 26 31
Wind_Direction
179 177 175 171 170 170 169 172 170 166 161 164 168 161 155 153 159 162 158 155 158 160 156 155 145 147 168 177 191 197 194 198 189 184 184 180 174 165 166 167 165 164 162 166 171 175 177 175 173 174 178 181 180 178 180 184 189 193 196 199 202 209 216 225 239 250 256 264 267 272 280 284 295 299 305 312 318 329 333 334 334 333 336 340 341
185 182 182 182 180 179 174 171 169 165 161 165 169 165 160 157 164 167 166 163 162 166 166 159 146 145 168 176 189 203 204 204 194 187 188 189 185 176 180 181 177 175 175 180 185 192 198 196 194 193 194 196 194 193 194 197 200 204 210 212 215 222 229 239 247 256 262 268 275 278 283 284 287 291 301 310 315 322 325 326 326 328 331 332 335
194 191 190 191 187 183 179 174 169 167 166 169 169 165 160 156 165 168 170 168 165 168 166 161 152 152 169 175 189 203 209 210 204 189 191 195 194 189 189 193 193 189 188 193 195 200 205 208 210 211 213 212 211 213 213 215 216 217 223 225 229 239 247 252 253 258 262 268 276 278 280 280 281 292 302 304 307 312 316 318 317 321 325 325 330
200 194 189 187 183 178 178 176 170 168 163 164 169 171 169 160 168 172 169 166 166 168 165 163 160 164 172 178 190 201 210 212 207 188 191 196 201 202 199 199 204 204 202 204 205 208 211 215 218 220 224 225 225 228 231 233 232 231 235 238 243 250 258 263 264 266 269 272 275 275 279 283 285 289 293 296 303 310 314 315 316 318 318 321 324
193 185 178 178 176 171 172 173 170 168 163 167 179 182 179 168 169 173 169 166 168 172 170 165 167 177 177 177 191 203 209 211 212 192 187 196 203 209 211 207 209 210 211 211 212 215 218 221 223 226 230 233 234 235 237 241 241 241 243 246 249 249 255 262 265 266 267 267 270 272 275 279 282 285 289 297 305 310 312 311 311 311 308 314 315
182 176 172 173 171 166 166 167 167 170 168 169 187 189 184 179 175 173 170 168 172 178 177 168 171 181 176 175 189 201 210 215 222 216 194 195 202 209 215 216 216 215 214 215 215 216 221 225 228 231 234 235 237 238 240 242 245 248 249 249 251 251 253 258 261 262 264 267 270 272 274 277 282 287 291 296 300 302 302 302 302 301 302 310 308
179 173 171 170 168 165 163 164 165 166 166 162 174 186 178 178 177 174 172 172 178 185 185 179 180 183 178 180 184 192 211 219 223 232 217 199 200 206 214 219 222 223 221 220 220 221 223 226 229 232 235 236 237 239 242 246 248 251 253 254 254 256 257 257 261 264 266 270 272 274 276 280 284 287 290 292 293 293 293 296 298 297 301 305 301
176 172 169 169 167 165 162 165 166 161 160 157 157 166 165 167 169 169 172 176 182 189 191 185 180 183 182 179 182 192 210 215 222 234 227 212 206 207 213 219 223 224 224 225 227 228 230 231 233 236 237 238 240 241 244 248 251 252 253 254 256 258 259 258 260 263 265 269 271 273 276 280 284 286 288 288 288 288 289 294 296 296 298 300 294
171 172 171 170 168 165 164 166 164 154 153 161 163 160 163 168 170 171 174 180 186 191 192 185 179 182 174 162 175 190 199 206 224 236 230 222 217 215 216 218 223 223 223 227 231 234 236 237 239 242 244 245 246 246 245 246 248 251 252 253 255 257 259 261 262 262 264 267 270 272 274 277 281 283 284 284 284 285 287 292 294 294 295 296 291
172 173 174 175 171 168 170 165 157 151 154 162 163 158 161 170 174 175 177 182 189 191 192 190 187 189 179 166 176 184 191 207 225 231 229 227 223 219 217 214 217 220 222 225 229 235 239 240 243 243 245 246 247 248 248 249 248 249 250 253 256 256 258 261 263 266 269 271 274 275 275 277 278 281 282 283 283 282 284 285 286 288 288 288 285
174 176 177 177 173 173 178 171 163 166 165 162 162 159 159 167 174 172 171 180 190 193 195 198 198 201 194 179 180 181 184 206 222 225 227 227 223 219 218 217 217 218 222 223 224 232 236 239 243 245 246 246 247 249 249 251 252 252 251 252 255 256 258 260 262 268 272 274 276 276 277 278 278 279 282 284 285 284 284 284 283 284 284 281 279
173 179 181 178 175 176 180 177 176 184 181 172 170 163 157 163 169 171 177 185 194 197 199 202 203 209 205 192 192 192 181 192 214 222 224 221 218 220 222 223 223 224 224 223 225 231 237 239 240 242 242 241 245 249 251 253 254 256 256 256 257 259 260 262 262 264 268 271 274 275 276 277 276 275 277 280 283 285 287 286 283 282 280 275 275
177 181 184 182 179 179 180 178 182 186 181 176 173 163 157 163 170 177 189 187 180 181 182 188 185 180 189 191 194 195 194 207 218 216 221 222 219 222 226 226 229 232 228 226 228 231 237 241 241 240 237 237 242 245 248 253 255 258 260 261 264 265 268 268 265 263 264 267 269 272 275 276 277 274 273 275 277 281 281 280 280 281 279 275 272
184 183 185 186 183 180 178 179 183 185 183 177 174 170 165 170 177 182 187 163 152 157 163 169 166 158 161 164 176 190 207 232 228 213 220 226 227 227 227 229 234 237 232 229 231 230 233 238 241 241 236 238 244 242 242 252 261 265 263 263 267 269 273 274 272 270 268 267 266 269 271 274 276 277 275 273 275 277 276 276 279 279 278 275 273
189 188 188 190 187 181 180 183 184 187 187 177 174 175 174 177 180 180 178 165 153 154 161 163 154 154 155 152 188 187 216 240 232 223 223 225 230 231 229 230 234 239 237 234 234 231 231 236 241 243 242 243 244 240 243 254 262 267 266 266 270 273 276 276 276 276 274 271 269 270 271 273 276 277 277 276 276 278 278 277 278 277 276 276 273
191 194 196 193 188 184 184 185 185 190 188 177 176 178 177 182 185 185 179 169 163 164 173 179 173 164 154 129 156 141 246 247 232 233 230 225 231 232 231 233 233 234 238 237 237 238 238 240 244 246 247 250 250 247 249 253 257 262 266 269 275 280 282 281 280 279 278 276 274 274 275 276 278 279 281 282 283 284 285 284 283 281 280 280 277
194 198 200 197 193 191 189 188 190 194 191 184 181 181 182 185 190 192 187 181 182 175 182 201 210 195 188 168 102 138 242 227 216 236 234 230 233 232 231 237 236 232 237 241 241 242 245 247 249 249 249 251 254 256 258 258 259 261 267 271 278 285 286 285 283 281 281 279 279 278 278 279 280 282 283 284 286 288 289 290 289 286 283 283 281
199 199 199 199 199 198 196 195 196 196 195 188 183 190 190 188 191 194 196 200 206 199 197 203 202 197 198 197 196 225 221 173 151 227 236 233 234 233 233 237 238 236 238 243 244 246 250 252 253 251 249 250 253 262 268 268 266 265 271 278 282 287 291 289 285 284 284 283 283 283 283 284 284 285 286 286 287 288 289 289 288 288 286 284 283
204 203 200 199 199 199 200 201 202 199 198 192 188 196 194 187 189 194 201 206 208 213 205 198 196 199 204 212 227 234 197 180 176 180 230 237 237 235 237 238 239 238 237 240 244 247 251 252 253 252 251 251 255 264 272 274 275 274 276 284 285 286 290 293 291 289 289 289 289 289 289 290 290 290 290 290 290 290 289 288 287 286 286 285 284
209 207 202 198 197 202 204 204 206 202 201 198 194 198 194 191 192 193 201 204 208 217 207 200 200 202 209 221 228 213 175 185 195 183 153 217 251 241 239 241 236 232 232 236 243 246 250 251 253 256 256 255 257 263 272 279 284 283 282 286 287 288 293 297 298 296 295 295 294 295 295 295 295 295 295 294 294 293 292 291 289 287 286 285 284
210 206 202 201 201 206 209 208 208 203 202 201 198 202 200 197 196 195 201 204 204 212 207 204 197 191 197 202 200 192 179 184 193 190 154 144 282 262 236 230 226 227 228 233 240 243 247 250 254 261 262 259 259 263 273 280 284 286 289 294 294 294 296 299 301 301 301 302 301 301 301 300 300 300 300 299 298 297 296 294 294 292 290 288 286
210 206 205 206 207 211 213 211 209 204 203 203 203 207 207 203 201 199 204 205 204 203 200 202 205 199 197 189 188 195 201 203 202 205 190 160 247 283 256 215 217 231 232 233 240 243 246 250 253 259 263 262 261 262 268 275 280 288 297 302 301 299 300 301 304 306 307 309 309 308 307 306 306 305 304 303 302 301 299 298 297 295 294 292 290
210 208 208 210 212 214 217 216 211 206 208 211 211 213 212 209 206 204 205 204 205 206 199 199 207 208 204 200 199 201 209 219 214 218 234 221 213 271 263 229 223 238 241 239 243 245 245 246 247 252 259 262 262 261 264 271 280 291 301 303 301 301 303 304 306 309 310 312 312 311 311 310 310 309 308 307 305 304 302 301 299 297 296 294 293
211 210 209 211 212 214 217 219 216 209 210 216 218 222 222 214 210 209 207 204 206 210 208 206 207 207 212 212 210 215 224 229 231 245 258 252 239 244 253 230 227 241 244 234 235 240 239 238 241 248 256 263 267 264 265 272 282 292 296 297 300 302 305 307 309 311 311 312 312 312 312 312 312 312 312 311 310 308 307 305 303 301 299 297 295
208 209 209 209 211 213 215 218 216 210 209 214 222 231 229 217 212 212 210 207 208 211 212 212 212 215 224 223 221 229 235 242 260 276 282 273 255 243 207 108 184 234 229 225 240 248 240 239 247 253 260 267 271 269 266 271 283 294 296 298 303 305 307 311 312 313 314 313 313 312 313 313 313 314 314 314 313 312 310 309 307 305 303 301 298
205 207 208 209 211 213 216 218 214 208 208 211 220 229 224 216 214 213 210 210 208 208 211 212 213 222 233 232 233 240 243 262 284 283 279 272 255 238 205 114 5 338 209 238 260 258 249 254 261 265 268 271 273 272 267 271 285 299 301 301 305 308 309 311 312 312 313 312 312 312 312 313 313 314 315 315 316 316 314 312 310 308 306 304 302
207 207 207 209 212 214 216 219 214 207 206 208 216 221 216 216 218 215 213 211 206 207 210 209 212 220 230 235 238 246 251 268 291 281 264 259 254 251 246 233 262 317 317 266 261 265 267 274 288 290 279 272 273 271 266 270 284 298 302 300 304 308 308 308 309 309 310 310 311 311 311 311 312 313 314 316 317 317 317 316 314 313 311 309 307
209 209 208 209 212 214 215 218 215 209 205 206 212 215 215 218 218 215 215 212 205 206 207 208 212 217 227 237 244 252 254 254 276 291 247 245 247 244 241 222 202 264 331 322 287 272 267 285 344 358 335 295 281 274 267 273 286 297 300 299 302 306 308 308 308 308 308 309 310 310 310 310 311 313 314 316 317 317 317 317 316 315 313 311 309
211 210 210 211 213 215 215 217 216 212 210 210 211 212 214 216 214 213 215 214 210 209 208 211 213 218 227 236 245 253 250 242 249 255 215 212 218 225 242 245 215 194 176 311 289 254 245 300 338 31 25 7 323 289 279 285 297 301 301 302 305 308 310 309 308 307 307 307 309 310 311 312 314 315 316 317 318 319 320 320 319 318 317 316 314
215 213 212 213 215 217 217 218 217 214 213 212 211 211 212 212 211 212 214 215 217 216 215 218 217 218 226 234 240 244 246 246 244 237 225 218 226 237 247 263 257 218 185 200 274 268 267 312 349 348 354 359 347 320 303 300 305 306 307 311 313 314 313 311 309 307 307 309 312 315 316 318 319 320 321 322 324 325 328 329 330 329 329 328 326
218 217 216 215 216 217 218 219 218 215 213 213 213 213 214 213 211 211 213 216 218 217 218 222 222 221 225 230 236 239 244 246 237 230 233 235 244 249 247 262 276 253 219 198 219 276 275 295 313 322 336 344 339 330 322 319 317 315 315 316 316 316 315 314 313 312 314 317 320 323 325 326 326 327 330 332 334 336 337 337 336 335 335 334 333
220 220 220 219 219 219 220 220 220 218 216 215 216 216 217 217 215 214 216 218 219 220 220 223 226 226 227 230 233 237 242 242 234 232 240 245 248 248 251 261 266 257 244 218 219 265 286 299 310 323 337 336 331 330 328 329 330 326 321 318 317 317 318 320 322 324 326 328 330 332 332 332 333 334 337 339 341 341 341 338 336 335 335 338 340
220 221 222 223 223 223 222 222 222 221 219 218 219 219 220 221 220 219 219 220 223 223 221 222 227 230 232 230 231 233 238 243 242 239 242 248 253 255 254 257 257 254 248 233 233 263 290 304 313 321 326 324 321 325 327 328 332 332 326 323 322 321 323 326 327 328 331 330 331 333 334 335 337 339 341 343 344 343 339 337 337 341 344 346 345
220 221 222 224 225 225 224 224 224 223 222 221 221 221 221 222 222 221 219 220 223 223 222 223 226 231 235 233 231 231 235 241 244 242 244 247 252 256 255 255 257 258 256 250 244 253 279 296 305 308 312 313 314 319 325 326 329 330 326 325 324 321 323 323 319 321 328 329 331 333 335 338 340 343 345 346 343 340 340 344 350 352 350 345 341
219 220 222 223 224 225 226 226 225 224 223 223 222 221 222 222 221 220 219 219 221 222 222 224 225 229 233 234 232 231 234 240 243 243 244 246 251 255 256 256 257 259 261 262 258 254 267 285 295 298 301 306 310 315 321 323 325 325 322 322 323 319 316 315 314 318 325 330 333 335 338 341 344 347 346 342 340 344 352 358 357 351 346 343 342
220 220 222 223 224 225 226 226 225 224 223 222 222 222 223 223 222 220 220 220 222 223 225 225 226 229 233 235 231 229 235 241 245 247 247 247 250 253 256 258 258 262 266 267 268 266 266 274 284 289 295 301 307 312 317 320 321 322 322 322 323 319 313 313 313 316 326 334 336 337 340 343 344 344 340 340 348 359 4 0 353 349 349 350 351
220 221 221 222 222 223 224 225 224 223 223 222 222 222 224 224 224 222 221 221 223 225 228 228 229 230 234 237 234 231 235 240 244 248 249 249 250 252 254 257 260 265 270 271 272 271 267 270 278 287 293 297 301 307 314 317 319 322 324 324 323 320 318 314 310 319 331 336 337 339 341 341 341 343 346 354 5 10 5 358 354 355 358 360 2
220 221 221 221 221 221 222 224 224 224 224 223 222 223 224 225 225 224 223 224 225 227 229 231 232 234 236 238 238 236 236 238 241 245 248 251 252 252 252 255 260 266 270 272 272 270 268 270 277 285 289 293 297 303 311 315 317 319 321 322 322 322 323 320 319 328 334 337 340 342 341 341 347 355 4 11 14 12 7 2 2 6 7 9 11
220 220 221 221 221 221 221 222 223 224 224 223 223 224 225 225 225 225 225 225 227 228 230 231 233 236 239 240 242 241 240 240 241 244 248 251 252 252 253 256 260 263 268 271 271 270 269 272 276 280 285 291 295 299 306 312 315 316 317 319 324 333 334 328 330 333 334 338 343 345 345 349 357 7 14 18 17 13 8 7 11 15 13 13 15
220 220 220 221 221 221 221 221 222 223 224 224 224 225 225 225 225 226 227 227 228 229 231 232 233 236 240 244 246 247 246 244 244 245 247 250 252 253 255 258 260 261 264 267 269 270 270 272 275 278 283 288 290 294 302 309 314 316 316 316 323 334 331 327 331 335 336 341 344 346 354 0 4 14 21 18 13 10 12 17 19 16 13 14 14
220 220 221 221 221 221 221 222 222 222 223 223 224 225 225 225 225 227 228 228 229 230 231 232 233 236 239 243 246 249 249 250 249 248 248 250 252 254 256 257 258 259 262 263 265 267 267 268 272 276 281 285 288 294 300 307 312 309 301 289 306 324 326 324 328 335 340 343 342 350 7 8 8 22 20 10 11 19 26 26 19 13 13 13 10
220 220 220 221 221 221 221 222 222 222 222 224 225 227 228 227 226 226 227 228 230 231 231 232 233 235 238 241 244 248 250 252 253 252 252 253 254 255 256 256 256 257 258 259 261 262 262 263 268 273 277 281 287 294 297 303 307 293 271 271 304 317 321 322 325 334 345 345 342 354 15 13 11 18 13 10 23 36 34 25 17 15 15 12 7
220 220 220 220 220 221 221 221 221 221 222 225 226 228 229 230 227 225 226 228 229 230 232 232 234 235 236 239 243 246 249 252 253 254 254 254 255 255 254 254 255 256 255 256 258 260 260 260 265 269 271 277 287 294 294 297 295 272 259 277 300 308 315 317 315 322 339 344 342 353 13 15 9 9 8 18 38 44 31 20 15 17 16 8 3
219 219 219 219 220 220 220 220 221 221 223 226 227 229 230 231 230 227 225 227 228 230 232 233 235 236 237 238 241 244 247 250 253 255 255 255 255 255 256 256 256 256 257 257 258 259 260 261 264 267 269 276 285 292 293 292 284 268 265 276 289 298 305 302 291 306 332 341 338 349 7 13 3 3 10 31 48 39 23 16 16 16 11 4 1
219 219 219 219 220 220 219 219 220 221 223 226 228 229 230 231 231 229 227 228 229 231 232 233 235 236 237 239 240 243 246 248 250 252 255 256 256 256 259 261 260 258 258 258 259 260 261 263 265 268 272 278 285 293 297 294 286 275 270 276 285 294 299 294 290 309 329 337 339 348 1 6 2 5 19 46 53 31 18 20 19 13 7 1 356
219 219 219 219 220 220 220 219 220 221 224 226 228 229 231 232 232 231 229 229 231 232 234 235 236 237 239 239 241 243 246 247 247 249 251 254 255 257 260 263 262 260 258 257 258 258 259 260 263 268 275 281 286 293 298 294 288 283 279 283 291 297 297 292 294 311 325 332 342 347 353 4 7 13 29 55 53 26 23 28 21 12 7 358 355
219 219 219 219 219 220 220 220 220 221 224 227 228 229 230 232 232 232 230 230 231 233 235 237 238 240 241 241 242 244 247 248 249 249 250 252 254 257 261 263 263 262 260 259 259 258 259 260 263 269 276 283 286 289 290 289 289 289 288 290 293 292 289 287 293 307 316 320 334 345 6 15 14 19 34 62 57 26 27 32 21 13 6 359 2
220 220 219 219 219 220 220 220 220 221 225 227 228 229 230 231 231 231 230 230 231 234 236 238 240 242 243 243 243 245 247 249 251 251 251 251 252 256 260 262 264 265 265 264 264 263 263 264 265 270 274 277 278 279 281 282 286 290 292 290 284 277 275 280 290 296 297 304 319 335 25 37 26 22 34 72 67 31 33 35 22 15 12 13 18
220 220 219 219 219 219 220 220 220 221 224 227 228 229 230 231 230 229 229 229 230 233 236 239 241 242 244 244 244 246 247 249 252 253 252 251 251 253 257 260 263 266 268 269 269 268 268 267 266 266 267 266 268 274 277 277 279 283 281 273 273 271 266 270 276 274 276 290 304 329 22 50 38 23 32 77 78 40 38 37 22 19 23 25 27
220 220 220 219 219 219 219 220 220 222 224 226 228 229 230 230 229 228 228 228 229 233 237 239 241 242 244 245 246 246 247 250 252 253 252 251 250 251 254 257 260 263 266 268 270 270 269 265 261 259 258 260 266 274 277 275 274 274 267 262 267 265 257 260 257 257 277 276 277 329 21 60 43 25 30 73 87 44 39 36 22 21 25 26 27
221 222 221 220 219 219 220 220 221 222 224 226 228 229 229 229 228 228 228 227 229 233 236 239 240 241 243 245 246 246 248 251 252 252 252 252 250 251 252 253 255 259 262 265 267 268 266 262 258 254 254 261 271 275 274 270 268 267 261 257 259 256 256 260 251 246 262 233 238 344 34 72 43 28 29 43 91 40 33 31 21 21 23 24 26